Theta_e
333 333 332 332 332 332 333 332 333 333 334 336 336 336 335 336 337 336 334 337 338 339 341 343 347 348 349 349 349 346 345 342 341 340 344 343 343 346 344 342 340 339 338
333 332 332 332 332 333 331 332 331 331 331 334 334 335 335 336 336 335 331 334 336 338 339 343 346 347 348 348 348 346 343 340 339 341 343 344 343 344 342 340 338 336 335
334 334 333 332 332 333 332 332 331 332 331 333 333 334 334 335 334 334 332 335 336 337 339 341 345 346 347 348 347 344 342 341 341 342 342 342 341 342 341 337 336 335 334
336 335 332 332 333 331 330 330 329 328 329 330 332 333 333 334 334 334 333 334 338 339 340 341 345 345 347 348 348 344 343 343 341 341 340 340 340 339 338 335 335 334 333
335 334 333 332 333 330 329 329 329 328 327 329 330 331 331 331 333 333 334 339 341 343 342 343 345 345 346 346 345 344 343 340 340 340 338 339 338 339 337 336 334 333 332
335 334 332 331 331 328 328 329 329 328 328 330 328 330 331 332 333 335 337 338 340 342 344 345 345 345 341 338 344 345 343 340 339 339 338 337 338 338 337 334 333 332 331
335 335 330 329 327 326 329 330 328 327 326 330 328 328 328 333 335 337 340 341 339 340 343 343 345 347 345 342 344 343 342 340 339 339 337 335 337 337 334 333 332 331 330
336 334 332 329 329 328 329 328 327 324 327 329 326 326 320 325 331 334 336 336 337 338 339 341 345 346 344 341 341 341 340 339 339 339 335 336 336 334 334 333 332 331 330
333 333 332 332 332 330 329 328 327 326 322 326 330 327 319 316 324 333 332 332 334 335 336 339 340 338 337 337 338 339 337 338 341 337 336 336 331 334 334 332 331 330 330
332 333 333 333 332 330 329 327 328 327 327 323 327 330 333 330 321 320 332 331 333 332 332 332 333 334 337 335 337 337 334 337 335 335 334 333 333 334 333 332 331 331 330
332 331 332 332 332 330 330 329 328 328 328 328 329 328 331 332 332 325 318 323 327 330 330 332 332 332 332 333 333 333 332 331 333 332 333 336 335 334 333 332 331 330 329
332 332 330 332 331 331 331 329 330 330 330 332 333 333 331 328 328 328 322 323 322 325 329 332 332 332 332 331 333 330 329 329 328 329 332 333 335 335 333 332 331 330 329
330 331 331 331 332 332 332 332 331 330 331 330 332 332 334 334 336 332 325 323 323 325 326 330 330 331 331 331 330 330 330 327 325 325 325 327 331 332 332 332 331 330 329
330 332 331 332 333 332 332 332 331 331 331 331 330 332 332 332 334 335 328 325 319 322 325 324 328 329 331 330 330 329 329 325 323 322 322 324 326 327 329 330 330 330 329
330 331 331 333 333 333 332 333 331 331 330 332 330 327 327 332 335 332 329 329 326 317 318 323 323 329 329 330 331 330 330 324 324 321 321 322 322 324 324 325 325 326 326
331 331 330 332 332 333 331 330 328 330 331 332 329 329 328 331 332 333 330 329 329 325 319 324 324 328 329 330 330 330 328 326 323 321 321 320 320 321 321 322 322 323 324
331 330 330 330 331 331 328 330 328 329 329 330 331 328 327 327 325 328 329 329 328 327 320 322 325 328 327 327 327 328 329 327 325 320 321 319 318 318 318 318 318 319 320
331 330 330 330 330 330 328 327 327 328 328 327 326 326 325 326 325 327 331 326 326 326 323 319 323 324 324 326 325 326 326 328 328 321 319 317 316 316 315 314 313 313 312
331 331 331 330 330 326 326 327 327 328 328 328 328 326 326 327 325 326 325 326 326 327 325 323 321 325 324 324 323 325 326 327 328 322 317 316 316 316 314 313 312 311 308
331 332 331 331 331 329 325 325 327 328 328 328 330 330 329 327 326 327 330 327 325 326 325 323 322 322 322 323 324 321 321 327 323 324 317 316 315 312 311 311 311 308 305
332 332 331 331 331 330 326 326 327 328 329 328 328 329 332 327 322 324 328 328 326 325 323 322 320 320 320 320 320 322 323 321 325 326 322 323 320 316 314 310 309 307 304
332 332 331 330 330 328 306 313 323 328 329 329 328 327 326 322 317 313 314 317 323 324 322 321 320 319 321 321 320 321 321 320 318 325 318 315 316 314 312 310 303 302 301
332 332 331 331 330 328 302 306 313 329 330 328 330 327 326 324 326 329 311 312 312 310 316 324 321 321 320 323 324 323 324 324 323 321 318 312 315 311 310 307 301 300 299
332 332 332 332 327 325 301 303 311 328 328 327 329 328 328 330 328 329 325 327 326 326 328 329 330 329 331 330 329 327 326 324 325 323 321 311 314 310 308 307 301 299 297
330 330 328 330 328 324 300 303 317 326 326 328 328 328 328 324 304 309 325 326 327 324 307 303 304 304 305 307 317 325 322 321 319 319 322 316 314 310 310 306 304 298 297
329 328 330 331 317 324 299 302 319 326 324 323 325 323 311 319 300 307 331 329 326 325 325 325 325 317 316 312 309 332 328 324 318 315 318 314 313 312 308 309 306 306 304
Wind_Speed
7 7 7 6 6 5 5 5 5 4 5 6 7 8 9 10 8 5 5 9 11 13 13 13 13 13 16 19 22 23 25 23 18 19 12 14 15 16 17 17 16 14 15
7 7 7 7 6 5 5 5 5 4 5 5 7 8 8 8 7 7 6 6 10 13 14 12 14 13 16 20 23 30 27 26 23 19 15 15 17 17 16 16 15 15 15
9 9 7 7 7 5 6 5 5 4 5 5 6 6 6 6 6 7 7 6 6 12 13 13 14 12 16 23 31 30 27 25 25 19 19 16 15 16 16 16 16 15 16
10 9 7 6 5 5 5 5 4 5 5 5 5 5 5 5 6 7 7 7 6 6 8 11 12 13 16 26 34 31 27 25 24 20 19 18 18 17 17 17 17 16 16
10 9 6 5 6 5 5 5 5 6 5 5 5 5 4 5 6 5 6 7 7 5 5 4 10 11 14 20 30 31 29 24 22 21 20 19 20 18 17 17 16 16 16
9 8 6 6 5 5 5 5 6 5 5 5 4 4 4 4 4 5 5 4 4 5 5 5 4 7 18 21 22 28 29 26 24 22 22 20 19 18 17 16 15 15 15
8 8 5 5 6 7 6 6 5 6 6 5 4 4 3 5 4 2 2 2 2 4 4 5 5 5 13 28 26 30 31 29 27 23 21 21 18 17 17 16 15 14 15
5 6 6 6 7 5 6 7 7 6 5 5 4 4 4 4 3 2 2 1 2 2 3 4 5 8 8 5 20 30 32 32 27 25 21 19 18 18 16 15 15 14 12
4 6 7 7 6 5 5 6 8 8 7 6 6 2 4 4 5 2 4 3 2 2 2 3 9 10 11 9 15 24 31 30 30 27 23 20 19 18 17 15 13 12 11
2 3 5 6 5 4 5 6 7 7 7 6 5 4 2 4 3 4 3 3 2 4 5 6 8 10 12 11 20 24 29 28 30 27 24 22 20 18 16 14 12 11 10
2 3 4 5 5 5 5 6 7 8 7 6 5 5 3 2 4 4 3 2 3 4 6 7 9 7 8 9 11 17 26 28 26 22 20 18 18 17 15 14 11 10 9
2 3 5 4 4 4 5 6 7 8 6 4 5 5 3 1 3 3 4 3 5 4 5 6 7 6 8 12 19 25 24 22 19 15 12 13 14 15 15 13 11 10 8
4 4 4 3 2 4 5 5 6 6 6 6 4 4 2 1 2 5 6 4 4 2 3 4 6 6 9 12 15 20 23 18 14 11 13 10 12 12 12 10 10 9 8
4 4 4 3 2 3 4 4 4 4 4 4 3 2 2 1 1 7 5 7 6 3 2 3 5 10 11 12 17 21 13 13 12 13 12 10 12 11 9 9 8 7 5
4 5 4 2 3 2 4 5 4 4 4 4 4 2 1 2 4 5 5 5 4 3 1 5 4 12 11 11 15 12 10 13 12 11 11 9 9 7 7 7 6 5 3
5 4 4 2 3 4 4 4 4 5 5 4 4 6 4 6 6 7 6 4 4 6 4 3 11 13 11 9 14 9 10 10 10 8 9 8 8 8 7 6 4 3 2
5 4 4 3 3 5 4 4 5 5 5 6 6 7 8 8 5 5 5 5 7 8 10 6 9 10 13 11 10 10 8 6 5 7 8 7 7 6 5 4 3 1 1
5 5 5 5 5 5 4 4 5 5 6 7 8 8 10 7 6 7 7 8 7 8 12 15 11 5 10 11 10 10 6 5 5 6 7 7 6 5 4 3 3 3 3
6 5 5 6 6 6 6 5 5 6 6 7 9 9 10 11 8 7 7 9 7 9 10 11 8 5 6 9 9 6 5 4 4 8 6 7 6 6 7 7 6 7 8
7 6 6 7 7 7 7 5 7 7 7 7 8 9 10 10 9 9 10 10 9 10 10 9 9 6 6 6 6 7 5 4 6 6 9 10 9 12 12 12 14 15 13
6 7 7 7 7 6 6 8 8 7 8 9 7 8 9 9 11 9 9 9 9 9 8 9 7 7 8 6 7 3 5 4 7 7 8 8 10 10 12 15 18 18 16
7 7 7 7 6 5 8 10 9 7 8 9 9 8 10 12 10 12 12 10 8 10 10 7 9 10 8 4 3 5 7 8 6 6 10 10 9 10 10 10 12 16 16
6 7 6 6 6 7 5 8 8 7 8 7 10 10 8 6 10 13 13 15 14 14 8 8 12 9 8 7 8 9 7 7 9 9 11 10 8 10 9 10 14 15 15
6 6 7 6 5 5 5 8 7 7 8 8 9 11 11 11 10 14 10 12 11 9 8 5 7 8 8 11 9 7 9 10 11 7 9 8 8 9 9 9 11 13 12
6 5 5 7 7 7 4 8 7 6 7 9 7 10 10 9 8 11 9 11 11 7 8 9 10 9 9 10 8 9 9 9 8 7 3 8 8 8 6 7 8 11 10
7 5 7 8 9 8 2 5 6 7 7 6 7 8 8 9 9 6 8 8 9 7 8 8 8 9 9 8 3 4 8 8 8 6 5 4 10 7 5 4 4 2 5
Wind_Direction
242 248 243 247 249 250 251 257 254 266 264 248 235 229 220 215 222 236 243 236 251 258 252 256 254 252 221 194 174 163 147 141 146 136 155 146 139 135 140 131 129 128 128
241 248 244 244 248 237 248 247 251 261 257 244 227 218 218 217 228 239 240 249 253 254 251 254 253 249 219 193 172 151 153 147 152 161 161 146 152 147 140 129 134 138 137
237 240 242 238 239 231 239 237 234 236 243 232 231 215 219 221 233 239 243 249 258 238 245 250 247 253 218 193 163 158 156 160 157 162 154 155 159 137 136 138 142 138 139
235 234 233 232 223 220 233 238 234 236 237 228 215 210 206 220 236 237 243 251 246 243 226 238 246 243 222 194 168 161 158 154 152 149 150 159 144 137 144 148 143 146 136
231 227 230 234 215 223 225 229 220 237 224 221 216 210 213 228 237 243 247 246 243 240 246 209 234 225 221 213 159 159 157 155 145 147 150 162 146 143 146 143 142 145 136
222 217 222 228 221 223 220 212 227 213 233 218 207 202 209 228 231 233 244 241 247 250 250 255 233 200 148 149 179 166 155 155 146 145 159 151 145 148 137 138 152 145 128
211 213 214 220 212 219 223 215 221 222 215 197 185 174 185 209 216 234 203 209 227 256 269 254 218 185 178 180 171 162 157 151 144 150 157 144 143 133 139 152 152 140 141
216 215 207 213 211 215 210 208 210 209 217 202 204 169 167 164 122 107 127 166 240 243 218 228 189 160 150 157 165 160 152 151 148 154 147 137 136 139 147 154 150 145 140
221 226 213 208 206 212 214 206 208 211 197 202 221 216 168 180 158 175 150 135 166 167 137 135 132 123 125 122 184 155 147 152 152 146 142 133 140 148 152 153 142 144 146
191 199 208 197 206 203 204 200 197 204 207 195 204 232 277 137 160 167 153 141 148 122 89 90 107 125 133 139 157 152 150 152 141 137 141 147 148 149 151 143 152 152 156
139 170 185 181 190 200 200 197 189 203 207 212 202 177 198 157 150 148 141 135 73 90 108 110 109 114 137 117 132 143 139 127 127 141 151 147 143 149 145 152 153 165 170
128 172 151 161 177 200 209 196 199 205 215 238 208 208 199 177 170 151 132 129 103 64 94 110 118 113 119 115 121 123 118 122 126 145 145 138 146 146 151 158 165 174 182
170 159 148 162 193 200 188 180 192 200 212 236 225 202 156 141 175 129 126 125 106 82 100 101 118 121 110 116 119 119 116 120 137 132 123 123 139 142 149 158 174 182 191
155 136 142 139 127 178 162 150 177 184 183 222 207 139 149 344 24 143 131 131 113 77 65 116 113 121 117 120 122 115 114 128 127 121 129 137 132 140 157 168 174 191 196
143 138 133 127 139 142 120 137 146 152 171 166 136 96 324 206 118 106 106 115 120 131 100 42 111 104 112 118 120 125 131 120 117 121 125 124 140 158 150 160 183 188 198
139 145 137 123 105 87 94 126 133 150 150 132 143 145 147 138 108 123 124 142 115 129 101 61 118 116 121 113 119 114 113 120 117 129 143 162 152 152 165 173 179 194 264
134 158 156 152 122 103 96 103 115 129 132 139 119 125 123 107 91 112 101 109 100 116 110 102 106 97 114 115 113 113 122 121 136 153 146 152 152 155 159 171 188 217 318
137 154 157 148 127 106 94 94 108 124 125 115 115 120 122 110 102 108 104 104 107 115 121 125 124 107 115 110 110 115 119 130 149 152 148 141 142 153 158 136 90 65 41
132 143 149 144 128 113 97 92 98 108 110 120 122 126 125 134 122 112 114 109 107 118 122 130 144 99 103 114 112 107 113 118 144 119 124 120 104 111 103 99 98 84 68
134 136 137 133 125 118 107 97 104 108 105 100 111 127 137 128 123 125 122 117 119 121 119 123 125 121 115 111 118 133 130 140 125 118 77 81 88 81 84 87 80 76 73
130 134 136 130 127 130 131 128 118 113 114 112 100 113 124 118 108 117 124 124 128 122 119 127 127 123 125 136 144 141 122 141 105 112 103 101 102 96 92 84 87 74 73
133 130 137 135 134 116 128 131 129 125 122 125 123 107 114 110 103 103 94 104 126 125 127 124 137 134 133 133 139 154 144 154 119 105 107 102 96 94 87 77 80 81 80
140 135 134 138 116 121 147 135 139 127 127 127 127 123 106 110 133 120 94 92 88 81 90 134 130 141 151 167 153 159 165 141 117 131 120 107 106 100 90 87 80 81 76
141 143 143 131 132 123 134 131 126 118 115 123 135 132 130 135 129 121 114 117 116 122 110 121 132 149 166 164 162 144 124 110 117 130 130 119 126 111 108 98 78 81 77
134 142 113 136 132 123 142 134 125 116 116 128 136 138 127 116 110 113 115 122 123 112 76 62 71 86 121 121 139 138 142 133 136 146 193 125 146 136 137 124 112 91 78
128 132 117 115 111 132 151 131 142 130 121 114 98 96 98 118 119 122 135 132 137 136 139 135 116 97 121 105 98 191 170 163 139 139 148 132 160 164 163 134 109 92 94